Date String (YYYY-MM-DD hh:mm:ss) UTC,Instrument flags,absolute air pressure of the measurement (hPa),sample flow rate (lpm),inlet stack bypass flow (lpm),air temperature of the measurement (°C),ambient temperature measured by the external sensor (°C),aerosol sample conditioner tube jacket temperature (°C),OPC LED temperature (°C),internal box temperature (°C),relative humidity of the measurement (%),span deviation,mass concentration of particles derived from Lorenz-Mie calculation of OPC scattering (μg/m³),mass concentration of particles derived from Lorenz-Mie calculation of OPC scattering (μg/m³),mass concentration of particles derived from Lorenz-Mie calculation of OPC scattering (μg/m³)
DateTimeUTC,F1_M11,P_M11,Q1_M11,Q2_M11,T1_M11,T2_M11,T3_M11,T4_M11,T5_M11,U1_M11,ZSPAN_M11,X0_M11,X2_M11,X1_M11
2023-11-11 18:00:00,SystemResetWarning,0831.2,5.01,000.00,024.8,024.0,000.0,032.9,026.2,6.2,0000.0,0009.78,0003.86,0003.17
2023-11-11 18:01:00,SystemResetWarning,0831.2,5.00,000.00,024.8,024.0,000.0,032.9,026.3,6.9,0000.0,0009.29,0003.74,0003.06
2023-11-11 18:02:00,SystemResetWarning,0831.3,5.01,000.00,024.8,024.0,000.0,032.9,026.3,7.3,0000.0,0009.00,0003.63,0002.90
2023-11-11 18:03:00,SystemResetWarning,0831.3,5.00,000.00,024.8,024.0,000.0,033.0,026.3,7.9,0000.0,0009.19,0003.52,0002.76
2023-11-11 18:04:00,SystemResetWarning,0831.3,5.00,000.00,024.8,024.1,000.0,033.0,026.4,8.1,0000.0,0009.43,0003.49,0002.70
2023-11-11 18:05:00,SystemResetWarning,0831.3,4.99,000.00,024.8,024.1,000.0,033.0,026.4,7.6,0000.0,0009.60,0003.45,0002.62
2023-11-11 18:06:00,SystemResetWarning,0831.3,5.00,000.00,024.9,024.2,000.0,033.0,026.4,7.5,0000.0,0009.22,0003.36,0002.49
2023-11-11 18:07:00,SystemResetWarning,0831.3,5.00,000.00,024.9,024.2,000.0,033.0,026.4,7.5,0000.0,0008.89,0003.30,0002.40
2023-11-11 18:08:00,SystemResetWarning,0831.3,5.00,000.00,024.9,024.2,000.0,033.0,026.4,8.0,0000.0,0008.52,0003.24,0002.33
2023-11-11 18:09:00,SystemResetWarning,0831.3,5.00,000.00,024.9,024.2,000.0,033.1,026.5,7.7,0000.0,0008.62,0003.18,0002.25
2023-11-11 18:10:00,SystemResetWarning,0831.3,5.00,000.00,024.9,024.3,000.0,033.1,026.5,7.7,0000.0,0008.50,0003.02,0002.13
2023-11-11 18:11:00,SystemResetWarning,0831.1,4.99,000.00,025.0,024.3,000.0,033.1,026.5,7.9,0000.0,0008.13,0002.96,0002.12
2023-11-11 18:12:00,SystemResetWarning,0831.2,5.00,000.00,025.0,024.3,000.0,033.1,026.5,7.9,0000.0,0008.15,0002.96,0002.15
2023-11-11 18:13:00,SystemResetWarning,0831.2,4.99,000.00,025.0,024.3,000.0,033.1,026.5,7.1,0000.0,0008.58,0003.06,0002.19
2023-11-11 18:14:00,SystemResetWarning,0831.2,5.00,000.00,025.0,024.3,000.0,033.1,026.5,6.3,0000.0,0008.18,0003.10,0002.25
2023-11-11 18:15:00,SystemResetWarning,0831.1,5.00,000.00,025.0,024.3,000.0,033.2,026.6,6.3,0000.0,0008.08,0003.14,0002.29
2023-11-11 18:16:00,SystemResetWarning,0831.2,5.01,000.00,025.0,024.3,000.0,033.2,026.5,6.1,0000.0,0007.64,0003.16,0002.32
2023-11-11 18:17:00,SystemResetWarning,0831.1,5.00,000.00,025.1,024.3,000.0,033.2,026.6,6.1,0000.0,0007.41,0003.14,0002.32
2023-11-11 18:18:00,SystemResetWarning,0831.2,5.00,000.00,025.1,024.3,000.0,033.2,026.6,6.2,0000.0,0007.40,0003.12,0002.27
2023-11-11 18:19:00,SystemResetWarning,0831.2,5.00,000.00,025.1,024.3,000.0,033.2,026.6,6.2,0000.0,0007.27,0003.07,0002.19
2023-11-11 18:20:00,SystemResetWarning,0831.1,5.00,000.00,025.1,024.3,000.0,033.2,026.6,6.1,0000.0,0006.41,0003.02,0002.15
2023-11-11 18:21:00,SystemResetWarning,0831.1,5.00,000.00,025.1,024.3,000.0,033.3,026.6,6.2,0000.0,0006.33,0003.00,0002.14
2023-11-11 18:22:00,SystemResetWarning,0831.1,5.00,000.00,025.1,024.3,000.0,033.3,026.6,6.1,0000.0,0006.28,0002.99,0002.14
2023-11-11 18:23:00,SystemResetWarning,0831.1,5.01,000.00,025.1,024.3,000.0,033.3,026.6,6.1,0000.0,0006.25,0002.97,0002.11
2023-11-11 18:24:00,SystemResetWarning,0831.2,5.00,000.00,025.1,024.3,000.0,033.3,026.6,6.1,0000.0,0005.44,0002.89,0002.07
2023-11-11 18:25:00,SystemResetWarning,0831.1,4.99,000.00,025.1,024.3,000.0,033.3,026.6,6.1,0000.0,0005.64,0002.85,0002.04
2023-11-11 18:26:00,SystemResetWarning,0831.1,5.00,000.00,025.1,024.3,000.0,033.3,026.6,5.8,0000.0,0005.95,0002.79,0002.02
2023-11-11 18:27:00,SystemResetWarning,0831.1,5.00,000.00,025.2,024.3,000.0,033.3,026.6,5.9,0000.0,0005.69,0002.67,0001.99
2023-11-11 18:28:00,SystemResetWarning,0831.0,5.00,000.00,025.2,024.3,000.0,033.3,026.6,5.8,0000.0,0006.53,0002.62,0001.96
2023-11-11 18:29:00,SystemResetWarning,0831.0,5.00,000.00,025.2,024.3,000.0,033.3,026.6,6.0,0000.0,0006.64,0002.67,0001.97
2023-11-11 18:30:00,SystemResetWarning,0831.0,5.01,000.00,025.2,024.3,000.0,033.4,026.6,6.1,0000.0,0006.61,0002.66,0001.97
2023-11-11 18:31:00,SystemResetWarning,0831.0,5.00,000.00,025.2,024.3,000.0,033.4,026.5,6.1,0000.0,0006.72,0002.68,0001.95
2023-11-11 18:32:00,SystemResetWarning,0830.9,5.01,000.00,025.2,024.3,000.0,033.4,026.5,6.0,0000.0,0006.82,0002.69,0001.94
2023-11-11 18:33:00,SystemResetWarning,0830.9,5.01,000.00,025.2,024.3,000.0,033.4,026.5,6.0,0000.0,0006.82,0002.66,0001.93
2023-11-11 18:34:00,SystemResetWarning,0830.9,4.99,000.00,025.2,024.2,000.0,033.4,026.5,6.0,0000.0,0006.93,0002.68,0001.93
2023-11-11 18:35:00,SystemResetWarning,0830.8,4.99,000.00,025.2,024.2,000.0,033.4,026.5,6.0,0000.0,0006.92,0002.69,0001.94
2023-11-11 18:36:00,SystemResetWarning,0830.9,5.01,000.00,025.2,024.2,000.0,033.4,026.5,6.1,0000.0,0006.87,0002.65,0001.95
2023-11-11 18:37:00,SystemResetWarning,0830.9,5.00,000.00,025.2,024.2,000.0,033.4,026.5,6.0,0000.0,0005.74,0002.66,0001.93
2023-11-11 18:38:00,SystemResetWarning,0830.9,5.01,000.00,025.2,024.2,000.0,033.4,026.5,5.9,0000.0,0005.75,0002.65,0001.92
2023-11-11 18:39:00,SystemResetWarning,0830.8,5.00,000.00,025.2,024.2,000.0,033.4,026.5,5.9,0000.0,0005.90,0002.65,0001.93
2023-11-11 18:40:00,SystemResetWarning,0830.8,5.00,000.00,025.2,024.2,000.0,033.4,026.5,5.9,0000.0,0005.85,0002.62,0001.91
2023-11-11 18:41:00,SystemResetWarning,0830.7,4.99,000.00,025.2,024.2,000.0,033.4,026.5,5.9,0000.0,0005.68,0002.60,0001.90
2023-11-11 18:42:00,SystemResetWarning,0830.7,5.00,000.00,025.2,024.2,000.0,033.4,026.5,5.9,0000.0,0005.43,0002.53,0001.89
2023-11-11 18:43:00,SystemResetWarning,0830.7,4.99,000.00,025.2,024.2,000.0,033.5,026.6,5.9,0000.0,0005.37,0002.52,0001.89
2023-11-11 18:44:00,SystemResetWarning,0830.7,5.00,000.00,025.2,024.2,000.0,033.5,026.6,5.9,0000.0,0005.72,0002.59,0001.89
2023-11-11 18:45:00,SystemResetWarning,0830.7,5.00,000.00,025.2,024.2,000.0,033.5,026.6,5.9,0000.0,0005.62,0002.55,0001.87
2023-11-11 18:46:00,SystemResetWarning,0830.7,5.00,000.00,025.2,024.2,000.0,033.5,026.6,5.9,0000.0,0005.50,0002.51,0001.85
2023-11-11 18:47:00,SystemResetWarning,0830.7,5.01,000.00,025.2,024.2,000.0,033.5,026.5,5.9,0000.0,0005.51,0002.54,0001.84
2023-11-11 18:48:00,SystemResetWarning,0830.6,5.00,000.00,025.2,024.3,000.0,033.5,026.6,5.8,0000.0,0005.61,0002.55,0001.84
2023-11-11 18:49:00,SystemResetWarning,0830.7,5.00,000.00,025.2,024.3,000.0,033.5,026.6,5.7,0000.0,0006.58,0002.61,0001.84
2023-11-11 18:50:00,SystemResetWarning,0830.6,5.00,000.00,025.2,024.3,000.0,033.5,026.6,5.7,0000.0,0005.69,0002.60,0001.83
2023-11-11 18:51:00,SystemResetWarning,0830.6,5.00,000.00,025.2,024.3,000.0,033.5,026.6,5.7,0000.0,0005.69,0002.56,0001.83
2023-11-11 18:52:00,SystemResetWarning,0830.7,5.00,000.00,025.2,024.3,000.0,033.5,026.6,5.8,0000.0,0005.73,0002.56,0001.84
2023-11-11 18:53:00,SystemResetWarning,0830.7,5.00,000.00,025.2,024.3,000.0,033.5,026.6,5.9,0000.0,0005.84,0002.62,0001.86
2023-11-11 18:54:00,SystemResetWarning,0830.7,5.00,000.00,025.2,024.3,000.0,033.5,026.6,5.8,0000.0,0005.89,0002.60,0001.85
2023-11-11 18:55:00,SystemResetWarning,0830.7,4.99,000.00,025.2,024.3,000.0,033.5,026.6,5.6,0000.0,0005.67,0002.52,0001.83
2023-11-11 18:56:00,SystemResetWarning,0830.7,4.99,000.00,025.2,024.3,000.0,033.5,026.6,5.5,0000.0,0005.69,0002.58,0001.85
2023-11-11 18:57:00,SystemResetWarning,0830.7,5.00,000.00,025.2,024.2,000.0,033.5,026.6,5.4,0000.0,0005.81,0002.63,0001.86
2023-11-11 18:58:00,SystemResetWarning,0830.7,5.01,000.00,025.2,024.2,000.0,033.5,026.6,5.4,0000.0,0005.95,0002.68,0001.86
2023-11-11 18:59:00,SystemResetWarning,0830.6,5.00,000.00,025.2,024.2,000.0,033.5,026.6,5.5,0000.0,0005.88,0002.66,0001.85
